Погода Кировский

Погода Кировский : погода сейчас, прогноз погоды и архив. Всё, что Вы хотите узнать о погоде Кировский!

Хотите узнать прогноз погоды Кировский? Тогда Вам сюда: Погода Кировский

Поиск расширенной информации на нашем сайте:

Другие новости

Новости СМИ2

Главная страница сайта

Новости сайта

03.07.2017

Напоминаем, что на нашем специализированном сайте Метеоцентр.Азия вы можете получить высокодетализированные автоматические прогнозы погоды по пунктам России, СНГ и мира в авиационном формате (включающие направление и скорость ветра, видимость, явления погоды, количество и форму облачности, нижнюю и верхнюю границу облачности).


Погода Кировский - сегодня

Время (UTC), дата Ветер
(°,м/с) 
Видим.   Явления Облачность Т
(°С)
Тd
(°С)
f(%) Тe
(°С)
Pmin
(гПа)
dP
(гПа)
Po
(мм)
O2
(г/м3)
Тmin Tmax R s Состояние
почвы
18 15.10.17 тихо ()   20000 м    ясно 
-4.8 -6.9 85 -5  1030  -0.8  763  314           
21 15.10.17 тихо ()   20000 м    3/3 1000 м 
[Sc]
-4.6 -6.4 87 -5  1029.7  -0.3  763  313  -5.1        замёрзшая 
00 16.10.17 210 (ЮЗ) 20000 м    10/0 средняя, верхняя 
[Ac trans|Ci sp]
+1.6 -5.9 57 +2  1029.6  0.2  763  306           
03 16.10.17 300 (СЗ) 20000 м    8/0 средняя, верхняя 
[Ac trans|Ci sp]
+8.8 -7.7 30 +10  1027.4  -1.9  761  298           
06 16.10.17 300 (СЗ) 20000 м    3/0 средняя 
[Ac cast]
+9.5 -7.1 30 +9  1026.2  -1.1  761  297           
09 16.10.17 тихо ()   10 км  дым  ясно 
+3.6 -3.7 59 +4  1026.6  0.2  761  303    +9.9       
12 16.10.17 180 (Ю) 10 км  дым  ясно 
-1.2 -3.9 82 -1  1026.8  761  308           
15 16.10.17 180 (Ю) 10 км    ясно 
-1.1 -5.2 74 -1  1025.7  -1.1  760  308           
18 16.10.17 220 (ЮЗ) 10 км    8/8 1000 м 
[Sc]
-2.2 -5.1 80 -2  1024.2  -1.5  759  309           
21 16.10.17 260 (З) 20000 м    10/0 средняя, верхняя 
[Ac trans|Ci fib]
-1.9 -4.9 80 -1  1022.7  -1.5  758  308  -2.3        замёрзшая 
00 17.10.17 270 (З) 20000 м    9/6 1000 м кучево-дожд., средняя, верхняя 
[Cb cap|Ac trans|Ci fib]
+3.3 -1.7 70 +1  1023  0.5  758  302           
03 17.10.17 320 (СЗ) 4{14}  20000 м  {ливн. осадки}  8/8 600 м кучево-дожд. 
[Cb cap]
+4.3 -3.5 57 +3  1026.6  3.6  761  302           
06 17.10.17 320 (СЗ) 20000 м  {ливн. осадки}  9/9 1000 м кучево-дожд. 
[Cb cap]
+5.5 -5.6 45 +4  1027.1  0.6  761  301           
09 17.10.17 320 (СЗ) 20000 м    1/0 верхняя 
[Ci fib]
+3.6 -7.4 44 +3  1028.6  1.3  762  304    +5.9  0.0     
12 17.10.17 350 (С) 20000 м    ясно 
+0.8 -11.9 38 +1  1030  1.2  763  308           
15 17.10.17 тихо ()   20000 м    3/0 средняя 
[Ac trans]
-3.6 -8.1 71 -4  1031.1  764  313           
18 17.10.17 тихо ()   20000 м    1/0 средняя 
[Ac trans]
-6.8 -8.1 90 -7  1031.6  0.3  764  317           
21 17.10.17 тихо ()   4000 м  дымка  ясно 
-7.7 -8.8 92 -8  1031.3  -0.3  764  318  -8.2        замёрзшая 
00 18.10.17 190 (Ю) 10 км    ясно 
-0.9 -6 68 1031.8  0.9  764  310           
03 18.10.17 310 (СЗ) 20000 м    1/0 средняя 
[Ac trans]
+6 -12.3 25 +7  1030.1  -1.4  763  302           
06 18.10.17 240 (ЮЗ) 20000 м    1/0 верхняя 
[Ci fib]
+8.7 -13.2 20 +10  1027.1  -2.8  761  298           
09 18.10.17 040 (СВ) 20000 м    4/0 верхняя 
[Ci fib]
+3 -11.7 33 +4  1026.1  -1.2  760  304    +8.9       
12 18.10.17 190 (Ю) 20000 м    3/0 верхняя 
[Ci fib]
-1.5 -9.2 56 -1  1025.6  -0.7  760  309           
15 18.10.17 160 (Ю) 20000 м    3/0 верхняя 
[Ci fib]
-0.4 -11 45 -1  1024.3  -1.2  759  307           
18 18.10.17 170 (Ю) 20000 м    ясно 
+1.9 -7.3 50 +1  1022.8  -1.4  758  304           
Время (UTC), дата Ветер
(°,м/с) 
Видим.   Явления Облачность Т
(°С)
Тd
(°С)
f(%) Тe
(°С)
Pmin
(гПа)
dP
(гПа)
Po
(мм)
O2
(г/м3)
Тmin Tmax R s Состояние
почвы

Для получения пояснительной информации подведите курсор к названию столбца.

ПОГОДА Кировский - архив

Всё, что Вы хотите узнать о погоде Кировский - удобно и подробно!

Выберите нужную дату (начиная с 1 января 2015* года) и нажмите кнопку "Найти".
Будут отображены архивные сводки погоды по пункту Кировский, начиная с указанной даты.


Отображать данные в формате CSV (для использования в таблицах Excel)


Внимание! Наш архив погоды предназначен исключительно для личного некоммерческого использования в познавательных целях. Если Вам необходимы официальные справки о состоянии погоды (для производственных, юридических, коммерческих и т.п. целей), обращайтесь в органы Росгидромета.

*Примечание: данная дата относится к архиву по метеостанциям СССР (Россия, СНГ, Балтия).
Архив по метеостанциям Зарубежной Европы и Азии (кроме Китая) хранится 10 дней, по другим регионам земного шара (Китай, Африка, Америка, Австралия, Океания) - 1 день.

Кировский - район местоположения метеостанции


Название, широта, долгота, высота метеостанции:
Кировский 45.1°ш. 133.5°д. 98 м над ур. моря [Российская Федерация]

Дополнительная информация

В oтличие oт бoльшинства пoгoдных сайтoв мы публикуем пoдрoбную метеoинфoрмацию в детальнoм прoфессиoнальнoм фoрмате.

Характеристики температуры и влажнoсти вoздуха измеряются на высoте 2 м в тени вдали oт зданий и деревьев.
Скoрoсть ветра измеряется на высoте 10 м (на урoвне рoста челoвека скoрoсть ветра ниже в 1.5-2 раза). Если метеoстанция нахoдится в гoрoде или в лесу, тo скoрoсть ветра занижена на 2-4 м/с пo сравнению с oткрытым местoм. Скoрoсть ветра над акватoриями крупных рек и oзёр, а также на вершинах хoлмoв на 2-5 м/с выше, чем в oбычных услoвиях.
Атмoсфернoе давление в разных тoчках местнoсти мoжет значительнo oтличаться oт давления на метеoстанции, в зависимoсти oт услoвий рельефа (при пoдъёме на 10 м давление пoнижается примернo на 1 мм рт.ст.).